Stations météo

Publicité
Aubenas, France (7570): Température de l'air & dewpoint: 25.10.2020 23:00:00 - 31.10.2020 23:00:00 (CET)Aubenas, France (7570): Température de l'air 5cm: 25.10.2020 23:00:00 - 31.10.2020 23:00:00 (CET)Aubenas, France (7570): Température de l'air -20cm & Température de l'air -100cm: 25.10.2020 23:00:00 - 31.10.2020 23:00:00 (CET)Aubenas, France (7570): Vitesse du vent & gusts: 25.10.2020 23:00:00 - 31.10.2020 23:00:00 (CET)Aubenas, France (7570): Direction du vent: 25.10.2020 23:00:00 - 31.10.2020 23:00:00 (CET)Aubenas, France (7570): reduced air pressure: 25.10.2020 23:00:00 - 31.10.2020 23:00:00 (CET)Aubenas, France (7570): visibility: 25.10.2020 23:00:00 - 31.10.2020 23:00:00 (CET)Aubenas, France (7570): Quantités de précipitations: 25.10.2020 23:00:00 - 31.10.2020 23:00:00 (CET)
Date & Time tt [°C] td [°C] tt 5cm [°C] tt -20cm [°C] tt -100cm [°C] ff [km/h] ff [knt] fx [km/h] fx [knt] dd ppp [hPa] vv [km] rr [mm]
31.10.2020 23:00:00 8,9 8,8 5,8 14,8 16,8 5 3 9 5 NNE 1025,7 6 0,0
31.10.2020 22:00:00 9,9 9,6 5,4 14,7 16,8 4 2 8 4 N 1025,5 8 0,0
31.10.2020 21:00:00 10,7 10,1 6,6 14,7 16,8 4 2 9 5 N 1025,5 13 0,0
31.10.2020 20:00:00 10,7 9,5 7,7 14,7 16,8 4 2 10 5 ENE 1025,3 16 0,0
31.10.2020 19:00:00 12,9 11,0 10,0 14,7 16,8 8 5 12 6 WSW 1025,1 20 0,0
31.10.2020 18:00:00 13,8 11,5 11,4 14,7 16,8 8 4 12 6 SSW 1024,4 20 0,0
31.10.2020 17:00:00 17,0 12,5 16,0 14,7 16,8 9 5 16 9 S 1023,8 20 0,0
31.10.2020 16:00:00 19,0 11,8 21,8 14,7 16,8 9 5 15 8 S 1023,5 20 0,0
31.10.2020 15:00:00 19,4 11,4 23,6 14,7 16,8 9 5 22 12 S 1023,2 20 0,0
31.10.2020 14:00:00 18,8 11,1 22,8 14,8 16,8 9 5 15 8 S 1024,1 20 0,0
31.10.2020 13:00:00 18,0 10,6 22,7 14,8 16,8 7 4 13 7 S 1024,9 18 0,0
31.10.2020 12:00:00 16,8 10,2 21,2 14,8 16,8 8 4 12 6 S 1025,6 20 0,0
31.10.2020 11:00:00 15,7 9,6 18,8 14,8 16,8 3 2 7 4 SSE 1026,3 20 0,0
31.10.2020 10:00:00 12,8 9,2 13,6 14,9 16,8 4 2 7 4 SW 1026,7 20 0,0
31.10.2020 09:00:00 10,0 8,1 7,9 14,9 16,8 0 0 5 3 N 1027,2 20 0,0
31.10.2020 08:00:00 7,2 7,1 3,4 15,0 16,8 5 3 8 4 NE 1027,2 20 0,0
31.10.2020 07:00:00 5,9 5,5 2,8 15,0 16,8 5 3 8 4 NE 1027,1 20 0,2
31.10.2020 06:00:00 6,5 5,9 2,6 15,0 16,8 5 3 7 4 NNE 1027,0 20 0,0
31.10.2020 05:00:00 6,5 6,1 2,9 15,0 16,8 0 0 6 3 N 1026,8 20 0,0
31.10.2020 04:00:00 6,7 6,4 3,2 15,0 16,8 3 2 4 2 NNE 1026,4 20 0,0
31.10.2020 03:00:00 7,8 7,4 3,5 15,0 16,8 0 0 5 3 N 1026,7 20 0,0
31.10.2020 02:00:00 8,5 7,6 5,1 14,9 16,8 5 3 10 5 N 1026,9 20 0,0
31.10.2020 01:00:00 8,0 7,6 4,7 14,9 16,8 4 2 6 4 NNE 1027,0 18 0,0
31.10.2020 00:00:00 8,8 7,9 5,1 15,0 16,8 4 2 7 4 NNE 1026,9 20 0,0
30.10.2020 23:00:00 10,2 8,1 5,1 14,9 16,8 3 1 7 4 NNE 1026,8 20 0,0
30.10.2020 22:00:00 12,3 10,0 6,6 14,9 16,8 4 2 10 5 NW 1026,5 20 0,0
30.10.2020 21:00:00 12,0 10,6 7,1 14,9 16,8 6 4 10 5 N 1026,5 20 0,0
30.10.2020 20:00:00 13,3 10,7 7,6 14,8 16,8 2 1 7 4 N 1026,0 20 0,0
30.10.2020 19:00:00 13,7 10,5 8,5 14,8 16,8 0 0 5 3 N 1025,9 20 0,0
30.10.2020 18:00:00 16,3 10,8 10,2 14,8 16,8 0 0 6 3 N 1025,0 20 0,0
30.10.2020 17:00:00 20,2 11,7 18,1 14,8 16,8 4 2 9 5 SE 1024,1 20 0,0
30.10.2020 16:00:00 21,8 11,2 24,3 14,8 16,8 6 4 11 6 SE 1023,7 20 0,0
30.10.2020 15:00:00 22,7 11,4 26,8 14,8 16,8 7 4 13 7 SE 1023,7 20 0,0
30.10.2020 14:00:00 22,3 10,4 26,5 14,8 16,8 3 2 10 5 WNW 1023,9 20 0,0
30.10.2020 13:00:00 21,5 10,6 25,7 14,8 16,8 5 3 12 7 SSW 1024,3 20 0,0
30.10.2020 12:00:00 20,2 10,0 24,4 14,8 16,8 4 2 10 5 SE 1025,0 17 0,0
30.10.2020 11:00:00 18,3 10,1 21,9 14,9 16,8 3 1 10 5 W 1025,7 20 0,0
30.10.2020 10:00:00 15,1 8,6 18,0 14,9 16,8 6 3 15 8 WNW 1026,6 20 0,0
30.10.2020 09:00:00 14,0 8,8 9,1 14,9 16,8 5 3 10 5 NE 1026,6 20 0,0
30.10.2020 08:00:00 10,6 7,7 8,5 14,9 16,8 4 2 18 10 NNE 1026,9 20 0,0
30.10.2020 07:00:00 12,2 8,1 8,5 14,9 16,9 16 8 25 14 N 1026,3 20 0,0
30.10.2020 06:00:00 10,7 7,8 5,8 14,9 16,8 11 6 20 11 N 1026,5 20 0,0
30.10.2020 05:00:00 10,3 7,7 6,0 14,9 16,8 8 4 14 7 N 1026,5 20 0,0
30.10.2020 04:00:00 11,0 7,9 8,5 14,9 16,9 10 5 21 11 N 1026,4 20 0,0
30.10.2020 03:00:00 10,2 8,0 6,4 14,9 16,8 7 4 12 6 NE 1027,0 20 0,0
30.10.2020 02:00:00 9,5 7,9 6,3 14,9 16,9 4 2 9 5 NE 1027,1 20 0,0
30.10.2020 01:00:00 10,7 7,9 7,8 14,9 16,9 4 2 20 11 NE 1027,1 20 0,0
30.10.2020 00:00:00 11,4 8,4 7,1 14,9 16,8 13 7 19 10 N 1027,3 20 0,0
29.10.2020 23:00:00 11,3 8,5 9,1 14,8 16,8 4 2 18 10 SW 1027,6 20 0,0
29.10.2020 22:00:00 12,2 9,2 10,5 14,8 16,8 10 5 19 11 N 1027,2 20 0,0
29.10.2020 21:00:00 12,5 9,3 11,0 14,8 16,9 9 5 25 13 N 1026,7 20 0,0
29.10.2020 20:00:00 13,5 9,5 11,2 14,8 16,9 16 9 24 13 N 1026,3 20 0,0
29.10.2020 19:00:00 13,0 9,4 10,5 14,8 16,9 11 6 16 9 NNE 1026,3 20 0,0
29.10.2020 18:00:00 14,2 9,6 12,0 14,8 16,9 7 4 13 7 NNE 1025,5 20 0,0
29.10.2020 17:00:00 16,9 9,8 16,2 14,7 16,9 8 5 22 12 NE 1024,9 20 0,0
29.10.2020 16:00:00 18,3 9,6 20,9 14,7 16,9 11 6 21 11 ENE 1024,3 20 0,0
29.10.2020 15:00:00 19,7 9,6 21,9 14,7 16,9 10 5 34 18 NNE 1024,1 20 0,0
29.10.2020 14:00:00 19,2 8,2 21,7 14,8 16,9 21 11 44 24 NNW 1024,2 20 0,0
29.10.2020 13:00:00 19,0 8,6 21,5 14,7 16,9 20 11 39 21 N 1024,4 20 0,0
29.10.2020 12:00:00 18,1 8,9 18,1 14,8 16,9 20 11 37 20 NNW 1025,2 20 0,0
29.10.2020 11:00:00 17,1 8,0 19,5 14,8 16,9 18 10 32 17 NW 1025,4 20 0,0
29.10.2020 10:00:00 16,2 8,7 15,6 14,8 16,9 12 7 24 13 NNW 1025,5 20 0,0
29.10.2020 09:00:00 14,2 9,4 12,0 14,8 16,9 5 3 13 7 N 1025,7 20 0,0
29.10.2020 08:00:00 12,9 8,0 10,7 14,8 16,9 8 4 13 7 NW 1025,2 20 0,0
29.10.2020 07:00:00 12,2 7,9 8,8 14,8 16,9 7 4 14 8 N 1024,9 20 0,0
29.10.2020 06:00:00 10,5 7,9 8,7 14,8 16,9 3 1 7 4 NNW 1024,9 20 0,0
29.10.2020 05:00:00 10,5 7,6 8,6 14,8 16,9 0 0 8 5 N 1024,3 20 0,0
29.10.2020 04:00:00 12,1 7,4 9,9 14,8 16,9 7 4 13 7 WNW 1024,0 20 0,0
29.10.2020 03:00:00 12,1 7,4 9,0 14,8 16,9 10 5 16 9 NW 1023,8 20 0,0
29.10.2020 02:00:00 12,0 7,5 8,6 14,8 16,9 7 4 12 7 WNW 1024,4 20 0,0
29.10.2020 01:00:00 12,2 7,7 7,8 14,8 16,9 8 4 17 9 NW 1024,2 20 0,0
29.10.2020 00:00:00 12,4 7,5 6,8 14,7 16,9 12 7 16 8 W 1023,8 20 0,0
28.10.2020 23:00:00 11,0 7,7 7,5 14,7 16,9 5 3 13 7 NNW 1023,7 20 0,0
28.10.2020 22:00:00 13,0 8,9 10,1 14,7 17,0 7 4 16 9 WNW 1022,7 20 0,0
28.10.2020 21:00:00 11,9 10,8 9,5 14,7 16,9 4 2 10 5 WSW 1022,5 20 0,0
28.10.2020 20:00:00 13,0 11,2 11,1 14,6 16,9 5 3 10 5 NE 1022,2 20 0,0
28.10.2020 19:00:00 12,7 10,6 9,5 14,6 16,9 3 2 6 3 ENE 1021,7 20 0,0
28.10.2020 18:00:00 14,1 10,9 9,9 14,6 16,9 2 1 4 2 NE 1020,5 20 0,0
28.10.2020 17:00:00 16,9 10,5 15,3 14,6 16,9 3 2 11 6 S 1019,8 20 0,0
28.10.2020 16:00:00 17,0 10,8 17,6 14,6 16,9 5 3 16 8 S 1019,6 20 0,0
28.10.2020 15:00:00 17,3 10,7 18,8 14,6 16,9 6 3 13 7 S 1019,2 20 0,0
28.10.2020 14:00:00 18,1 10,0 19,9 14,6 16,9 3 1 12 7 SSE 1019,5 20 0,0
28.10.2020 13:00:00 17,0 9,7 19,8 14,6 16,9 6 4 14 7 S 1020,3 20 0,0
28.10.2020 12:00:00 16,0 9,2 18,3 14,6 17,0 2 1 6 3 ENE 1020,9 20 0,0
28.10.2020 11:00:00 14,4 9,4 14,5 14,6 16,9 3 2 7 4 SSE 1021,0 20 0,0
28.10.2020 10:00:00 13,0 8,9 14,5 14,6 17,0 2 1 10 6 E 1021,0 20 0,0
28.10.2020 09:00:00 11,1 10,0 9,5 14,6 17,0 5 3 9 5 NE 1020,7 20 0,2
28.10.2020 08:00:00 8,1 8,1 4,4 14,7 17,0 5 3 9 5 NNE 1020,9 0,4 0,0
28.10.2020 07:00:00 7,5 7,1 4,2 14,7 17,0 0 0 4 2 N 1019,9 20 0,0
28.10.2020 06:00:00 8,6 8,0 5,8 14,7 17,0 0 0 7 4 N 1019,2 20 0,0
28.10.2020 05:00:00 9,3 8,7 9,0 14,7 17,0 3 2 5 3 NW 1018,5 20 0,2
28.10.2020 04:00:00 9,3 8,5 8,9 14,7 17,0 0 0 6 3 N 1018,3 20 0,0
28.10.2020 03:00:00 9,3 8,4 8,8 14,7 17,0 3 2 10 6 N 1018,1 20 0,2
28.10.2020 02:00:00 9,5 8,1 9,0 14,6 16,9 2 1 5 3 NE 1018,0 13 0,2
28.10.2020 01:00:00 9,4 8,2 8,8 14,7 17,0 2 1 5 3 NNE 1018,0 20 0,0
28.10.2020 00:00:00 9,5 7,8 8,8 14,7 17,0 3 1 7 4 NE 1017,8 20 0,0
27.10.2020 23:00:00 9,6 8,0 8,7 14,7 17,0 0 0 4 2 N 1017,7 20 0,0
27.10.2020 22:00:00 9,7 7,5 8,6 14,6 17,0 0 0 6 4 N 1017,5 20 0,0
27.10.2020 21:00:00 10,3 7,5 8,1 14,6 17,0 8 4 11 6 N 1016,7 20 0,0
27.10.2020 20:00:00 10,6 6,9 7,4 14,6 17,0 4 2 6 3 N 1016,5 20 0,0
27.10.2020 19:00:00 11,6 6,7 9,0 14,6 17,0 4 2 11 6 N 1016,3 20 0,0
27.10.2020 18:00:00 12,2 6,7 10,8 14,6 17,0 8 4 14 7 ESE 1015,7 20 0,0
27.10.2020 17:00:00 14,3 6,6 13,8 14,6 17,0 4 2 9 5 S 1014,8 20 0,0
27.10.2020 16:00:00 16,3 5,3 18,6 14,7 17,0 5 3 11 6 SSW 1014,2 20 0,0
27.10.2020 15:00:00 15,7 5,0 16,0 14,7 17,0 4 2 14 8 S 1014,3 20 0,0
27.10.2020 14:00:00 15,6 4,9 15,7 14,7 17,0 5 3 13 7 S 1014,5 20 0,0
27.10.2020 13:00:00 15,3 5,5 16,4 14,8 17,0 6 3 16 9 S 1015,2 20 0,0
27.10.2020 12:00:00 14,5 5,8 18,8 14,8 17,0 8 5 15 8 SSW 1015,8 20 0,0
27.10.2020 11:00:00 12,2 5,4 14,7 14,8 17,0 4 2 12 7 SSW 1016,4 20 0,0
27.10.2020 10:00:00 10,1 7,2 9,3 14,9 17,0 4 2 7 4 S 1016,4 20 0,0
27.10.2020 09:00:00 7,3 5,6 8,1 14,9 17,0 0 0 3 2 N 1016,5 20 0,0
27.10.2020 08:00:00 5,1 4,5 2,1 15,0 17,0 0 0 8 4 N 1016,2 20 0,0
27.10.2020 07:00:00 3,9 3,2 1,3 15,0 17,0 3 1 9 5 ENE 1015,7 20 0,0
27.10.2020 06:00:00 4,9 2,9 2,1 15,0 17,0 3 2 13 7 SSE 1015,0 20 0,0
27.10.2020 05:00:00 4,8 3,1 2,0 15,1 17,0 0 0 9 5 N 1014,7 20 0,0
27.10.2020 04:00:00 6,5 4,0 2,1 15,1 17,0 8 4 14 7 NW 1014,2 20 0,0
27.10.2020 03:00:00 5,6 3,3 2,4 15,1 17,0 0 0 9 5 N 1014,6 20 0,0
27.10.2020 02:00:00 7,7 3,4 4,0 15,1 17,0 5 3 16 9 SW 1014,3 20 0,0
27.10.2020 01:00:00 8,8 3,2 4,3 15,1 17,0 9 5 21 11 N 1014,1 20 0,0
27.10.2020 00:00:00 9,2 3,2 5,8 15,1 17,0 8 5 20 11 NNW 1014,4 20 0,0
26.10.2020 23:00:00 9,8 3,1 7,5 15,1 17,0 8 4 22 12 N 1014,2 20 0,0
26.10.2020 22:00:00 9,7 3,6 5,3 15,2 17,0 10 5 24 13 NNW 1013,7 20 0,0
26.10.2020 21:00:00 10,7 3,9 6,5 15,1 17,0 6 3 22 12 N 1013,0 20 0,0
26.10.2020 20:00:00 10,3 4,6 6,2 15,2 17,0 5 3 13 7 N 1012,6 20 0,0
26.10.2020 19:00:00 10,1 5,1 6,9 15,1 17,0 6 3 23 12 N 1012,2 20 0,0
26.10.2020 18:00:00 12,4 4,4 10,4 15,1 17,0 10 6 23 13 NW 1010,9 20 0,0
26.10.2020 17:00:00 13,5 7,0 12,3 15,2 17,0 5 3 22 12 NE 1009,7 20 0,0
26.10.2020 16:00:00 15,6 3,7 14,2 15,2 17,0 10 6 20 11 NW 1009,0 20 0,0
26.10.2020 15:00:00 15,9 4,0 15,8 15,2 17,0 10 6 24 13 NW 1009,0 20 0,0
26.10.2020 14:00:00 15,6 4,0 16,0 15,2 16,9 13 7 31 17 N 1008,8 20 0,0
26.10.2020 13:00:00 14,8 4,8 16,2 15,2 16,9 16 8 27 15 N 1009,6 20 0,0
26.10.2020 12:00:00 14,3 8,0 16,0 15,2 16,9 5 3 10 6 W 1010,1 20 0,0
26.10.2020 11:00:00 11,9 8,6 12,4 15,2 16,9 5 3 14 8 NE 1010,4 20 0,0
26.10.2020 10:00:00 9,4 7,7 9,0 15,3 17,0 3 1 16 9 NNW 1010,8 20 0,0
26.10.2020 09:00:00 8,6 7,5 8,0 15,3 17,0 7 4 16 9 NE 1010,9 20 0,0
26.10.2020 08:00:00 8,2 7,3 7,8 15,3 17,0 8 4 16 9 N 1010,2 20 0,6
26.10.2020 07:00:00 8,6 7,8 8,0 15,3 17,0 8 5 18 10 NNE 1009,8 19 2,2
26.10.2020 06:00:00 9,3 7,9 8,5 15,3 17,0 11 6 24 13 NNE 1009,5 20 0,4
26.10.2020 05:00:00 9,5 8,3 8,6 15,3 17,0 13 7 30 16 NNE 1008,4 20 0,4
26.10.2020 04:00:00 9,8 8,4 9,1 15,3 16,9 8 5 39 21 NNE 1007,3 19 2,6
26.10.2020 03:00:00 12,3 12,1 11,9 15,4 17,3 3 1 10 5 N 1007,5 3,3 11,3
26.10.2020 02:00:00 13,0 12,8 12,7 15,3 17,3 4 2 13 7 SSW 1006,1 2,1 4,2
26.10.2020 01:00:00 13,2 12,9 12,8 15,3 17,3 4 2 11 6 SW 1006,7 6 0,4
26.10.2020 00:00:00 13,7 12,8 12,9 15,3 17,3 4 2 9 5 WSW 1007,4 5 1,0
25.10.2020 23:00:00 14,3 12,0 13,3 15,3 17,3 3 1 12 6 SSE 1008,1 20 0,0

tt = Température de l'air
td = dewpoint
tt 5cm = Température de l'air 5cm
tt -20cm = Température de l'air -20cm
tt -100cm = Température de l'air -100cm
ff = Vitesse du vent
fx = gusts
dd = Direction du vent
ppp = reduced air pressure
vv = visibility
rr = Quantités de précipitations

stations d'obs. à proximité